Location: Ambrosina
(19.9365°S, 43.9833°W)
Time: 09:09:42
(UTC+00:00)

GPS 2-15 Rocket1 - Pass Details

Date: 11 May 2021
Orbit: 624 x 675 km, 19.8° (Epoch: 22 June)

Event Time Altitude Azimuth Distance (km) Brightness Sun altitude
Rises 21:51:50 0° 267° (W) 3,016 8.0 -19.6°
Reaches altitude 10° 21:54:19 10° 273° (W) 2,101 6.9 -20.2°
Maximum altitude 21:59:03 45° 345° (NNW) 917 4.0 -21.3°
Enters shadow 22:01:04 29° 38° (NE) 1,219 4.3 -21.7°
